{"data":{"norad_id":65210,"intl_designator":"2025-176N","name":"STARLINK-34941","alt_names":[],"object_type":"PAYLOAD","status":"ACTIVE","operator":null,"country":"US","launch_date":"2025-08-14","launch_site_code":"AFETR","launch_vehicle":null,"mission":null,"orbit_class":"UNKNOWN","rcs_meters":null,"size_class":null,"mass_kg":null,"dimensions":null,"purposes":["comms"],"wikipedia_slug":null,"has_3d_model":false,"image_url":null,"decayed_at":null,"tle_current":{"epoch":"2026-05-25T00:35:19.932864Z","epoch_age_seconds":68982,"freshness":"FRESH","line1":"1 65210U 25176N   26145.02453626  .00012693  00000+0  38610-3 0  9992","line2":"2 65210  53.1605 157.7369 0001317  88.3668 271.7485 15.34405989 44814","mean_motion":15.34405989,"eccentricity":0.0001317,"inclination_deg":53.1605,"raan_deg":157.7369,"arg_perigee_deg":88.3668,"mean_anomaly_deg":271.7485,"bstar":0.0003861,"rev_number":4481,"period_min":93.847391780481,"perigee_km":461.78450337957,"apogee_km":463.58637601019,"semimajor_km":6840.8224396949,"source":"CELESTRAK","updated_at":"2026-05-25T13:38:20.720130Z"}}}